CAPE
0 0 0 0 0 0 0 0 0 0 0 0 0 0 0 0 0 0 0 0 0 0 0 0 0 0 0 0 0 0 0 0 0 0 0 0 0 0 0 0 0 65 200 487 542
0 0 0 0 0 0 0 0 0 0 0 0 0 0 0 0 0 0 0 0 0 0 0 0 0 0 0 0 0 0 0 0 0 0 0 0 0 0 0 0 0 219 1096 774 500
0 0 0 0 0 0 0 0 0 0 0 0 0 0 0 0 0 0 0 0 0 0 0 0 0 0 0 0 0 0 0 0 0 0 0 0 0 0 0 0 0 166 1123 1110 678
0 0 0 0 0 0 0 0 0 0 0 0 0 0 0 0 0 0 0 0 0 0 0 0 0 0 0 0 0 0 0 0 0 0 0 0 0 0 0 0 0 33 1171 1213 977
0 0 0 0 0 0 0 0 0 0 0 0 0 0 0 0 0 0 0 0 0 0 0 0 0 0 0 0 0 0 0 0 0 0 0 0 0 0 0 0 0 239 950 954 865
0 0 0 0 0 0 0 0 0 0 0 0 0 0 0 0 0 0 0 0 0 0 0 0 0 0 0 0 0 0 0 0 0 0 0 0 0 0 0 0 0 1 236 807 912
0 0 0 0 0 0 0 0 0 0 0 0 0 0 0 0 0 0 0 0 0 0 0 0 0 0 0 0 0 0 0 0 0 0 0 0 0 0 0 0 0 0 151 814 1254
0 0 0 0 0 0 0 0 0 0 0 0 0 0 0 0 0 0 0 0 0 0 0 0 0 0 0 0 0 0 0 0 0 0 0 0 0 0 0 0 0 0 183 819 1324
0 0 0 0 0 0 0 0 0 0 0 0 0 0 0 0 0 0 0 0 0 0 0 0 0 0 0 0 0 0 0 0 0 0 0 0 0 0 0 0 5 212 493 1106 1416
0 0 0 0 0 0 0 0 0 0 0 0 0 0 0 0 0 0 0 0 0 0 0 0 0 0 0 0 0 0 0 0 0 0 0 0 0 0 0 0 0 0 330 1381 1416
0 0 0 0 0 0 0 0 0 0 0 0 0 0 0 0 0 0 0 0 0 0 0 0 0 0 0 0 0 0 0 0 0 0 0 0 0 0 0 0 0 0 0 571 882
0 0 0 0 0 0 0 0 0 0 0 0 0 0 0 0 0 0 0 0 0 0 0 0 0 0 0 0 0 0 0 0 0 0 0 0 0 0 0 0 0 0 0 0 456
0 0 0 0 0 0 0 0 0 0 0 0 0 0 0 0 0 0 0 0 0 0 0 0 0 0 0 0 0 0 0 0 0 0 0 0 0 0 0 0 0 0 0 0 6
0 0 0 0 0 0 0 0 0 0 0 0 0 0 0 0 0 0 0 0 0 0 0 0 0 0 0 0 0 0 0 0 0 0 0 0 0 0 0 0 0 0 0 0 0
0 0 0 0 0 0 0 0 0 0 0 0 0 0 0 0 0 0 0 0 0 0 0 0 0 0 0 0 0 0 0 0 0 0 0 0 0 0 0 0 0 0 0 0 0
0 0 0 0 0 0 0 0 0 0 0 0 0 0 0 0 0 0 0 0 0 0 0 0 0 0 0 0 0 0 0 0 0 0 0 0 0 0 0 0 0 0 0 0 0
0 0 0 0 0 0 0 0 0 0 0 0 0 0 0 0 0 0 0 0 0 0 0 0 0 0 0 0 0 0 0 0 0 0 0 0 0 0 0 0 0 0 0 0 0
0 0 0 0 0 0 0 0 0 0 0 0 0 0 0 0 0 0 0 0 0 0 0 0 0 0 0 0 0 0 0 0 0 0 0 0 0 0 0 0 0 0 0 0 0
0 0 0 0 0 0 0 0 0 0 0 0 0 0 0 0 0 0 0 0 0 0 0 0 0 0 0 0 0 0 0 0 0 0 0 0 0 0 0 0 0 0 0 0 0
0 0 0 0 0 0 0 0 0 0 0 0 0 0 0 0 0 0 0 0 0 0 0 0 0 0 0 0 0 0 0 1 0 0 0 0 0 0 0 0 0 0 0 0 0
0 0 0 0 0 0 0 0 0 0 0 0 0 0 0 0 0 0 0 0 0 0 0 0 0 0 0 0 0 0 0 0 0 0 0 0 0 0 0 0 0 0 0 0 0
0 0 0 0 0 0 0 0 0 0 0 0 0 0 0 0 0 0 0 0 0 0 0 0 0 0 0 0 0 0 0 0 0 0 0 0 0 0 0 0 0 0 0 0 0
0 0 0 0 0 0 0 0 0 0 0 0 0 0 0 0 0 0 0 0 0 0 0 0 0 0 0 0 0 0 0 0 0 0 0 0 0 0 0 0 0 0 0 0 0
0 0 0 0 0 0 0 0 0 0 0 0 0 0 0 0 0 0 0 0 0 0 0 0 0 0 0 0 0 0 0 0 0 0 0 0 0 0 0 0 0 0 0 0 0
0 0 0 0 0 0 0 0 0 0 0 0 0 0 0 0 0 0 0 0 0 0 0 0 0 0 0 0 0 0 0 0 0 0 0 0 0 0 0 0 0 0 0 0 0
0 0 0 0 0 0 0 0 0 0 0 0 0 0 0 0 0 0 0 0 0 0 0 0 0 0 0 0 0 0 0 0 0 0 0 0 0 0 0 0 0 0 0 0 0
0 0 0 0 0 0 0 0 0 0 0 0 0 0 0 0 0 0 0 0 0 0 0 0 0 0 0 0 0 0 0 0 0 0 0 0 0 0 0 0 0 0 0 0 0
CIN
0 0 0 0 0 0 0 0 0 0 0 0 0 0 0 0 0 0 0 0 0 0 0 0 0 0 0 0 0 0 0 0 0 0 0 0 0 0 0 0 0 -245 -273 -219 -382
0 0 0 0 0 0 0 0 0 0 0 0 0 0 0 0 0 0 0 0 0 0 0 0 0 0 0 0 0 0 0 0 0 0 0 0 0 0 0 0 0 -259 -262 -381 -497
0 0 0 0 0 0 0 0 0 0 0 0 0 0 0 0 0 0 0 0 0 0 0 0 0 0 0 0 0 0 0 0 0 0 0 0 0 0 0 0 0 -243 -216 -302 -370
0 0 0 0 0 0 0 0 0 0 0 0 0 0 0 0 0 0 0 0 0 0 0 0 0 0 0 0 0 0 0 0 0 0 0 0 0 0 0 0 0 -212 -186 -273 -263
0 0 0 0 0 0 0 0 0 0 0 0 0 0 0 0 0 0 0 0 0 0 0 0 0 0 0 0 0 0 0 0 0 0 0 0 0 0 0 0 0 -197 -171 -190 -242
0 0 0 0 0 0 0 0 0 0 0 0 0 0 0 0 0 0 0 0 0 0 0 0 0 0 0 0 0 0 0 0 0 0 0 0 0 0 0 0 0 -88 -179 -183 -225
0 0 0 0 0 0 0 0 0 0 0 0 0 0 0 0 0 0 0 0 0 0 0 0 0 0 0 0 0 0 0 0 0 0 0 0 0 0 0 0 0 0 -174 -188 -212
0 0 0 0 0 0 0 0 0 0 0 0 0 0 0 0 0 0 0 0 0 0 0 0 0 0 0 0 0 0 0 0 0 0 0 0 0 0 0 0 0 -7 -123 -180 -233
0 0 0 0 0 0 0 0 0 0 0 0 0 0 0 0 0 0 0 0 0 0 0 0 0 0 0 0 0 0 0 0 0 0 0 0 0 0 0 0 -24 -70 -90 -167 -213
0 0 0 0 0 0 0 0 0 0 0 0 0 0 0 0 0 0 0 0 0 0 0 0 0 0 0 0 0 0 0 0 0 0 0 0 0 0 0 0 0 0 -94 -88 -150
0 0 0 0 0 0 0 0 0 0 0 0 0 0 0 0 0 0 0 0 0 0 0 0 0 0 0 0 0 0 0 0 0 0 0 0 0 0 0 0 0 0 0 -90 -95
0 0 0 0 0 0 0 0 0 0 0 0 0 0 0 0 0 0 0 0 0 0 0 0 0 0 0 0 0 0 0 0 0 0 0 0 0 0 0 0 0 0 0 0 -138
0 0 0 0 0 0 0 0 0 0 0 0 0 0 0 0 0 0 0 0 0 0 0 0 0 0 0 0 0 0 0 0 0 0 0 0 0 0 0 0 0 0 0 0 -80
0 0 0 0 0 0 0 0 0 0 0 0 0 0 0 0 0 0 0 0 0 0 0 0 0 0 0 0 0 0 0 0 0 0 0 0 0 0 0 0 0 0 0 0 0
0 0 0 0 0 0 0 0 0 0 0 0 0 0 0 0 0 0 0 0 0 0 0 0 0 0 0 0 0 0 0 0 0 0 0 0 0 0 0 0 0 0 0 0 0
0 0 0 0 0 0 0 0 0 0 0 0 0 0 0 0 0 0 0 0 0 0 0 0 0 0 0 0 0 0 0 0 0 0 0 0 0 0 0 0 0 0 0 0 0
0 0 0 0 0 0 0 0 0 0 0 0 0 0 0 0 0 0 0 0 0 0 0 0 0 0 0 0 0 0 0 0 0 0 0 0 0 0 0 0 0 0 0 0 0
0 0 0 0 0 0 0 0 0 0 0 0 0 0 0 0 0 0 0 0 0 0 0 0 0 0 0 0 0 0 0 0 0 0 0 0 0 0 0 0 0 0 0 0 0
0 0 0 0 0 0 0 0 0 0 0 0 0 0 0 0 0 0 0 0 0 0 0 0 0 0 0 0 0 0 0 0 0 0 0 0 0 0 0 0 0 0 0 0 0
0 0 0 0 0 0 0 0 0 0 0 0 0 0 0 0 0 0 0 0 0 0 0 0 0 0 0 0 0 0 0 -11 0 0 0 0 0 0 0 0 0 0 0 0 0
0 0 0 0 0 0 0 0 0 0 0 0 0 0 0 0 0 0 0 0 0 0 0 0 0 0 0 0 0 0 0 0 0 0 0 0 0 0 0 0 0 0 0 0 0
0 0 0 0 0 0 0 0 0 0 0 0 0 0 0 0 0 0 0 0 0 0 0 0 0 0 0 0 0 0 0 0 0 0 0 0 0 0 0 0 0 0 0 0 0
0 0 0 0 0 0 0 0 0 0 0 0 0 0 0 0 0 0 0 0 0 0 0 0 0 0 0 0 0 0 0 0 0 0 0 0 0 0 0 0 0 0 0 0 0
0 0 0 0 0 0 0 0 0 0 0 0 0 0 0 0 0 0 0 0 0 0 0 0 0 0 0 0 0 0 0 0 0 0 0 0 0 0 0 0 0 0 0 0 0
0 0 0 0 0 0 0 0 0 0 0 0 0 0 0 0 0 0 0 0 0 0 0 0 0 0 0 0 0 0 0 0 0 0 0 0 0 0 0 0 0 0 0 0 0
0 0 0 0 0 0 0 0 0 0 0 0 0 0 0 0 0 0 0 0 0 0 0 0 0 0 0 0 0 0 0 0 0 0 0 0 0 0 0 0 0 0 0 0 0
0 0 0 0 0 0 0 0 0 0 0 0 0 0 0 0 0 0 0 0 0 0 0 0 0 0 0 0 0 0 0 0 0 0 0 0 0 0 0 0 0 0 0 0 0
Wind_Speed
36 37 38 37 38 37 35 32 29 27 27 27 27 27 27 27 28 24 32 26 20 18 12 16 16 18 19 22 21 20 32 34 29 24 23 19 17 20 18 23 19 9 22 21 4
37 39 39 39 39 37 34 30 28 26 26 27 26 26 26 25 25 31 29 21 19 19 21 18 18 16 21 22 22 25 34 33 25 23 22 20 25 25 24 25 20 8 15 5 7
38 39 40 41 40 38 34 30 27 24 25 25 25 25 24 23 28 21 20 11 15 17 17 17 15 16 22 21 24 26 34 28 26 25 24 26 27 28 28 26 21 14 12 7 7
40 41 41 42 41 38 34 29 26 24 24 23 21 21 22 22 25 18 17 22 17 13 18 17 18 20 23 25 24 31 31 34 29 28 27 32 26 26 26 31 25 20 14 16 13
42 42 43 43 42 39 34 29 25 22 22 21 18 16 19 23 23 22 24 20 10 7 16 19 20 21 24 24 26 31 35 33 35 38 37 32 39 31 34 31 26 17 16 17 13
42 43 44 44 42 39 35 29 23 20 20 17 15 13 18 25 18 18 20 15 11 6 13 17 21 20 22 26 24 25 29 36 38 40 35 34 38 33 39 30 26 18 19 17 14
42 44 44 43 41 40 35 28 21 21 16 14 11 15 19 22 19 25 23 19 7 7 10 17 18 18 22 25 25 29 34 34 34 36 36 30 37 36 44 35 32 26 21 21 19
44 43 44 42 39 39 36 29 25 23 16 13 10 18 19 19 22 25 16 14 9 10 13 15 18 21 24 22 24 26 27 33 28 28 31 29 45 34 38 40 34 30 26 23 21
44 42 42 40 40 37 34 27 25 23 18 14 15 16 18 19 17 19 11 13 11 13 15 13 16 24 24 27 31 28 33 32 32 27 29 30 36 30 29 27 38 35 29 22 22
45 43 41 40 39 34 28 20 22 21 19 16 15 18 15 15 17 19 14 9 13 12 16 17 19 24 25 27 36 33 33 33 32 25 28 36 37 33 23 23 33 32 30 27 23
46 44 41 38 36 30 23 21 27 21 23 15 7 13 7 24 21 12 14 12 14 17 21 20 25 29 28 27 29 30 32 36 33 31 33 40 41 38 30 30 36 36 31 28 28
44 44 40 37 31 26 23 23 24 19 23 15 4 6 3 13 20 20 13 14 16 21 19 22 29 28 26 28 29 31 36 38 35 32 32 37 43 40 37 35 34 28 37 37 29
43 42 39 37 25 25 22 25 23 22 19 20 17 19 22 12 9 17 10 14 16 20 21 26 24 21 25 28 30 33 35 35 37 34 33 36 43 39 39 33 33 31 32 30 30
44 40 38 34 21 26 22 32 32 16 21 21 20 21 21 15 14 16 15 12 17 19 19 27 28 30 29 32 28 38 31 34 35 34 40 26 45 37 37 38 33 34 31 34 31
45 40 37 29 22 24 24 30 21 16 22 24 20 18 22 16 23 20 22 16 15 20 19 24 22 23 28 34 30 37 30 33 34 34 34 36 38 38 34 39 39 34 36 35 33
45 39 34 25 24 23 31 25 16 19 18 21 21 25 20 23 21 23 21 21 19 23 26 31 25 26 30 31 29 30 29 28 28 31 43 36 35 41 37 33 34 31 33 36 33
46 39 26 24 31 29 29 18 17 15 23 23 23 24 23 25 24 24 19 22 24 27 28 30 26 24 25 30 27 25 28 39 42 41 51 32 34 42 35 34 34 33 31 29 29
48 33 22 25 33 26 21 17 18 17 19 23 25 23 22 26 24 25 22 24 24 22 25 29 28 24 26 26 29 28 26 33 42 43 46 27 38 37 33 30 30 30 30 31 30
46 29 25 38 34 23 20 20 19 18 21 24 24 25 23 23 25 25 26 29 25 26 27 30 28 26 24 22 24 27 29 24 32 34 40 36 40 31 32 30 30 30 30 30 31
37 27 30 44 28 21 22 20 18 20 22 23 24 24 27 28 27 27 26 26 29 29 27 29 38 28 29 26 24 25 26 30 30 41 45 37 37 37 32 32 32 32 32 32 33
32 28 35 42 23 25 23 21 19 23 22 24 25 26 26 29 27 27 26 26 28 30 26 30 33 38 33 31 36 31 30 29 28 31 39 42 36 26 27 28 29 28 29 31 33
33 29 37 35 28 24 22 22 23 23 23 23 23 23 25 27 27 24 25 25 27 27 29 30 30 39 36 24 22 24 28 29 35 36 32 35 33 26 28 28 28 28 30 30 31
35 28 31 31 28 28 24 22 22 23 23 22 23 22 21 24 26 22 23 19 22 22 24 27 29 37 34 29 27 28 28 29 31 33 37 38 35 25 29 30 29 28 29 29 29
32 33 30 29 26 26 27 23 25 22 21 22 21 20 21 23 22 23 23 21 23 21 20 22 24 28 35 33 30 36 38 34 33 40 41 43 39 34 34 33 32 31 31 30 28
31 30 28 33 30 29 25 24 26 26 22 23 22 21 22 23 24 24 21 25 23 22 21 23 28 28 28 31 33 35 37 36 40 41 46 45 46 43 39 35 35 34 33 32 29
30 31 29 29 27 29 26 26 26 24 22 23 23 24 21 21 21 27 26 26 25 22 23 25 29 30 36 34 33 38 38 38 38 40 49 52 59 47 41 39 37 36 35 31 29
27 26 27 28 29 29 27 25 25 26 21 20 24 24 19 19 24 24 24 24 25 26 27 27 26 27 33 26 30 42 39 34 32 34 39 48 50 44 44 44 41 38 37 33 29
Wind_Direction
335 333 333 326 326 330 341 344 345 345 343 337 332 327 323 317 312 306 285 285 282 274 286 284 271 267 271 270 266 268 258 256 260 263 270 274 272 288 297 282 291 271 264 266 203
333 335 331 328 331 339 344 348 347 348 342 335 331 328 326 327 319 299 294 291 278 273 266 272 267 262 265 267 266 259 257 257 262 266 266 269 271 280 285 289 280 261 264 263 218
332 331 331 333 334 340 345 348 350 351 344 338 331 326 326 330 317 315 314 321 291 266 266 267 273 266 265 270 264 262 258 262 261 262 270 265 271 279 278 281 279 265 246 231 222
334 334 332 331 336 343 347 352 352 352 347 342 343 333 325 327 314 328 329 308 306 258 258 262 262 262 266 264 268 263 262 259 262 263 269 266 275 275 274 271 271 265 241 240 231
334 331 333 337 338 338 347 352 355 355 350 348 350 345 330 319 311 314 313 319 336 248 246 254 256 261 264 271 269 265 261 263 261 260 264 271 259 266 266 269 276 265 242 241 231
330 331 334 332 329 337 346 353 358 357 354 358 360 357 335 314 323 325 330 331 328 274 252 256 264 263 270 270 272 275 268 264 262 260 264 267 264 258 256 263 267 269 255 241 226
327 329 329 327 323 333 347 356 3 357 1 8 15 350 331 316 323 303 310 311 333 294 267 263 272 265 270 273 276 273 268 268 265 263 263 269 264 256 252 262 263 269 267 253 238
328 324 325 324 319 333 342 357 2 1 12 23 27 342 331 330 317 302 313 315 319 294 296 276 270 273 272 278 278 273 274 267 272 269 266 263 259 265 265 250 259 266 264 261 247
326 321 320 318 323 334 346 5 10 12 19 33 12 356 342 329 329 325 317 304 313 297 290 293 279 271 272 267 267 272 266 269 272 274 269 266 266 274 275 251 256 262 260 259 252
326 321 319 318 326 337 1 18 22 16 19 16 14 357 348 335 335 333 331 314 305 308 293 283 279 270 267 263 259 265 268 270 271 277 274 266 268 272 279 254 246 254 267 257 254
327 322 319 316 330 351 12 15 9 12 359 358 345 338 246 309 311 333 336 318 296 293 283 283 271 265 267 266 270 271 271 270 274 277 277 267 267 267 270 265 254 244 261 258 254
324 323 321 319 354 8 20 19 15 8 357 4 22 15 268 323 308 301 318 306 297 286 284 282 270 271 275 272 270 269 271 272 278 278 277 274 266 267 265 264 261 241 230 258 253
325 324 324 337 13 19 20 12 6 4 360 3 14 15 354 9 330 315 314 303 297 291 284 276 281 282 276 273 270 270 272 276 276 281 278 276 268 265 264 265 266 256 253 242 243
327 324 327 351 20 12 15 353 346 20 356 354 358 357 357 6 348 350 332 301 298 292 289 284 281 275 277 274 276 270 279 279 278 278 270 279 267 266 263 262 264 258 255 247 246
327 325 341 12 16 13 4 353 6 22 353 351 359 8 351 354 327 325 339 318 291 290 292 286 287 286 280 276 276 273 283 280 279 276 276 272 270 266 270 264 262 263 260 260 255
327 326 356 13 11 5 353 359 20 5 352 351 353 344 349 340 336 327 323 325 314 295 288 281 290 288 285 283 281 283 280 283 281 279 267 269 270 267 266 267 268 270 267 267 262
325 334 6 11 358 354 353 12 4 358 352 348 343 344 339 328 330 330 333 330 309 296 292 289 287 293 299 285 288 284 277 270 270 268 263 276 271 269 272 270 272 272 276 276 271
325 356 6 8 354 357 6 9 348 359 348 342 338 337 334 328 328 325 319 312 321 315 301 290 280 293 300 291 282 282 278 271 269 267 267 277 267 272 279 278 282 279 278 277 278
339 4 10 353 353 7 7 355 350 352 347 338 336 331 327 327 321 318 313 304 307 308 299 294 285 294 299 303 294 282 275 283 278 277 271 272 271 277 287 282 284 282 280 279 281
356 4 2 347 1 9 1 354 355 353 346 342 334 334 322 323 319 315 310 310 300 302 297 291 283 287 289 296 296 290 288 276 276 269 266 270 271 272 283 282 285 284 285 284 282
3 1 357 349 11 5 355 354 353 350 348 342 336 330 327 323 319 314 308 309 306 300 300 294 282 280 286 285 282 284 280 280 278 274 269 267 268 284 288 290 289 294 293 293 290
1 358 357 1 1 6 1 354 350 347 347 343 342 338 331 329 322 317 309 305 311 304 293 297 288 280 283 294 300 285 284 281 271 269 272 270 267 290 291 291 297 297 299 300 300
356 359 3 7 358 356 354 350 349 345 344 343 340 340 340 332 326 322 317 317 323 315 303 302 289 282 282 283 285 282 285 287 282 274 266 264 265 288 291 290 295 298 303 304 308
358 352 359 8 6 357 351 347 343 348 346 345 342 343 337 331 327 320 313 318 315 314 313 313 297 288 278 283 288 282 282 283 278 270 269 264 267 274 287 287 289 295 299 301 304
359 355 359 349 353 352 350 346 341 339 345 346 341 338 333 328 324 319 314 312 315 308 309 311 296 293 290 293 291 287 285 285 275 272 267 265 267 271 280 284 287 290 295 297 299
356 355 356 351 352 350 349 345 342 340 341 338 337 333 330 325 321 315 313 311 308 311 308 309 297 297 290 289 286 285 287 285 283 279 271 269 265 272 274 277 282 290 286 293 293
1 0 355 352 350 347 346 345 341 342 340 343 338 334 329 328 323 321 316 310 306 304 303 303 300 299 292 297 294 285 287 283 285 285 281 271 270 272 270 270 273 280 279 281 290